[[{"header":{"parameterUnit":"m.s-1","parameterCategory":1,"la1":30.2991,"la2":30.254,"lo1":-89.0895,"lo2":-89.0444,"dy":0.0017,"dx":0.0017,"nx":28,"ny":28,"refTime":"2024-12-07T03:00:00:Z","depth":0,"parameterNumber":2,"parameterNumberName":"U-component_of_WINDS"},"data":[0,0,0,0,0,0,0,0,0,0,0,0,0,0,0,0,0,0,0,0,0,0,0,0,0,0,0,0,0,0,0,0,0,0,0,0,0,0,0,0,0,0,0,0,0,0,0,0,0,0,0,0,0,0,0,0,0,0,-2.0121,-2.0121,0,-2.0118,-2.0118,-2.0118,-2.0002,-1.9999,-1.9996,-1.9993,-1.9996,-1.9999,-2.0002,0,0,0,0,0,0,0,0,0,0,0,0,0,-2.003,-2.0033,-2.0121,-2.0121,-2.0121,-2.0118,-2.0118,-2.0118,-2.0003,-1.9999,-1.9995,-1.9992,-1.9995,-1.9999,-2.0002,0,0,0,0,0,0,0,0,0,0,0,0,0,-2.0053,-2.0033,-2.0121,-2.0062,-2.0057,-2.0118,-2.0118,-2.0118,-2.0003,-1.9999,-1.9994,-1.999,-1.9994,-1.9998,-2.0003,-2.0121,0,0,-2.0016,-2.0018,0,0,0,0,0,0,0,0,-2.0052,-2.0057,-2.0071,-2.0067,-2.0061,-2.0056,-2.0087,-2.0119,-2.0005,-2.0024,-1.9993,-1.9988,-2.002,-2.0022,-2.0032,-2.0121,-2.0121,-2.0017,-2.0019,-2.0021,-2.0022,0,0,0,0,0,0,0,-2.0051,-2.0056,-2.012,-2.0071,-2.0065,-2.0038,-2.0036,-2.0093,-2.0048,-2.0022,-2.0014,-2.0015,-2.0016,-2.0028,-2.0031,-2.0121,-2.0016,-2.002,-2.0023,-2.0025,-2.031,-2.0315,0,0,0,0,0,0,-2.0056,-2.0056,-2.012,-2.012,-2.0045,-2.0044,-2.0042,-2.0062,-2.0047,-2.004,-2.0018,-2.0009,-2.0023,-2.0026,-2.0031,-2.017,-2.0021,-2.0025,-2.0028,-2.0305,-2.0311,-2.0317,0,0,0,0,0,0,-2.0055,-2.0063,-2.012,-2.0085,-2.009,-2.005,-2.0074,-2.0064,-2.0076,-2.0044,-2.0036,-2.0038,-2.0019,-2.0025,-2.01,-2.0169,-2.0027,-2.0031,-2.0299,-2.0307,-2.0314,-2.0449,0,0,0,0,0,0,-2.0053,-2.0063,-2.0107,-2.0087,-2.0093,-2.0188,-2.0078,-2.0068,-2.0083,-2.0071,-2.006,-2.0054,-2.0016,-2.0094,-2.0104,-2.0172,-2.0034,-2.0293,-2.0303,-2.0312,-2.0438,-2.046,-2.0479,0,0,0,0,0,-2.005,-2.0145,-2.0109,-2.0118,-2.0146,-2.0192,-2.0195,-2.0148,-2.0089,-2.0133,-2.0113,-2.0055,-2.0159,-2.0102,-2.0113,-2.0183,-2.0289,-2.03,-2.0311,-2.0429,-2.0456,-2.0478,0,0,0,0,0,0,-2.0176,-2.0142,-2.0101,-2.0193,-2.0196,-2.0172,-2.0226,-2.0177,-2.0198,-2.0186,-2.0127,-2.0126,-2.0211,-2.0204,-2.0142,-2.0298,-2.0214,-2.0227,-2.03,-2.0325,-2.0345,-2.0346,-2.0038,0,0,0,0,0,-2.0214,-2.0252,-2.0221,-2.0305,-2.0308,-2.0268,-2.0286,-2.0249,-2.025,-2.0251,-2.0236,-2.0242,-2.0276,-2.03,-2.0329,-2.0436,-2.0434,-2.049,-2.051,-2.0527,-2.054,-2.0599,-2.0625,-2.0353,-2.0353,-2.0353,0,0,-2.0293,-2.028,-2.0308,-2.033,-2.0328,-2.0371,-2.0269,-2.0319,-2.0351,-2.0259,-2.0329,-2.0319,-2.0321,-2.0413,-2.0453,-2.041,-2.0614,-2.0541,-2.0555,-2.0559,-2.0613,-2.0639,-2.0662,-2.0361,-2.0359,-2.0358,0,0,-2.0461,-2.0454,-2.0524,-2.0523,-2.0521,-2.0493,-2.051,-2.0494,-2.0483,-2.0552,-2.0484,-2.0523,-2.0582,-2.0587,-2.0597,-2.0767,-2.0716,-2.0779,-2.0886,-2.0944,-2.0965,-2.0984,-2.1048,-2.1071,-2.0792,-2.0792,-2.0792,0,-2.0561,-2.0622,-2.0566,-2.0621,-2.0634,-2.055,-2.0623,-2.0626,-2.0634,-2.0646,-2.0597,-2.067,-2.0665,-2.0759,-2.0801,-2.0811,-2.0831,-2.0781,-2.0966,-2.0984,-2.1001,-2.1061,-2.1085,-2.08,-2.0799,-2.0798,-2.0797,0,-2.0746,-2.079,-2.0847,-2.0856,-2.0875,-2.0938,-2.0894,-2.092,-2.0882,-2.086,-2.0933,-2.0924,-2.0951,-2.097,-2.0933,-2.1059,-2.1033,-2.0976,-2.089,-2.1036,-2.1092,-2.1114,-2.0811,-2.0808,-2.0806,-2.0804,0,0,-2.0995,-2.0972,-2.0994,-2.0998,-2.0989,-2.1023,-2.1083,-2.1108,-2.1133,-2.1141,-2.1192,-2.1244,-2.1192,-2.1204,-2.1167,-2.1217,-2.1356,-2.1154,-2.1154,-2.1195,-2.1498,-2.1543,-2.157,-2.1321,-2.1325,-2.1328,-2.1499,0,-2.1159,-2.1259,-2.1211,-2.1318,-2.1359,-2.128,-2.1333,-2.1335,-2.1317,-2.135,-2.1329,-2.1368,-2.1295,-2.1302,-2.1348,-2.133,-2.1417,-2.1316,-2.1371,-2.1374,-2.1376,-2.1599,-2.1646,-2.1808,-2.152,-2.1524,-2.1526,0,-2.1364,-2.1381,-2.1491,-2.1477,-2.1492,-2.154,-2.156,-2.1592,-2.1593,-2.1576,-2.159,-2.1542,-2.1602,-2.1515,-2.1599,-2.1532,-2.1551,-2.1546,-2.1551,-2.1557,-2.1461,-2.1613,-2.1857,-2.1883,-2.1559,-2.1557,-2.1554,0,-2.1538,-2.1587,-2.166,-2.1666,-2.165,-2.1686,-2.1681,-2.1677,-2.1696,-2.1714,-2.1726,-2.1751,-2.1766,-2.1788,-2.1749,-2.1688,-2.184,-2.1749,-2.183,-2.1832,-2.1868,-2.1866,-2.2121,-2.1876,-2.1875,-2.1875,-2.1874,0,-2.1728,-2.18,-2.1738,-2.1784,-2.1862,-2.1807,-2.1887,-2.1874,-2.1871,-2.1915,-2.1848,-2.1891,-2.1835,-2.1872,-2.1842,-2.1918,-2.1925,-2.1915,-2.1906,-2.1922,-2.1924,-2.1936,-2.1925,-2.1881,-2.188,-2.1879,-2.1877,0,-2.1936,-2.1897,-2.1972,-2.1951,-2.1947,-2.2006,-2.1989,-2.2031,-2.2007,-2.2063,-2.2073,-2.2037,-2.2078,-2.204,-2.2079,-2.2059,-2.2162,-2.2135,-2.2161,-2.2155,-2.2239,-2.2233,-2.2513,-2.2549,-2.2278,-2.2281,-2.2283,0,-2.2061,-2.2114,-2.2098,-2.2122,-2.2121,-2.2159,-2.2178,-2.2126,-2.2148,-2.2154,-2.2197,-2.2232,-2.2257,-2.2327,-2.2306,-2.2336,-2.2312,-2.2408,-2.2316,-2.2332,-2.2317,-2.2316,-2.2322,-2.2428,-2.2431,-2.2434,-2.2436,0,-2.2289,-2.2267,-2.2295,-2.2318,-2.2341,-2.2357,-2.2367,-2.2391,-2.2337,-2.2366,-2.2406,-2.2426,-2.2466,-2.2503,-2.2526,-2.2524,-2.2473,-2.2464,-2.2485,-2.2504,-2.2518,-2.2514,-2.2215,-2.2459,-2.2457,-2.2455,-2.2454,-2.2453,-2.2461,-2.2505,-2.2501,-2.2536,-2.2538,-2.2549,-2.2588,-2.2569,-2.2601,-2.2629,-2.2596,-2.2647,-2.2648,-2.2675,-2.2678,-2.2719,-2.2679,-2.2708,-2.2716,-2.2725,-2.2739,-2.2509,-2.2722,-2.2722,-2.2721,-2.272,-2.272,0,-2.2687,-2.2681,-2.2712,-2.2729,-2.2757,-2.2703,-2.2712,-2.274,-2.2784,-2.2789,-2.2815,-2.2863,-2.2899,-2.288,-2.2911,-2.2948,-2.2925,-2.2958,-2.2956,-2.2957,-2.2771,-2.2751,-2.2976,-2.2976,-2.2976,-2.2976,-2.2976,-2.2975,-2.2808,-2.2881,-2.286,-2.2934,-2.2927,-2.2974,-2.2985,-2.2996,-2.3,-2.3056,-2.3084,-2.3071,-2.3068,-2.3098,-2.3129,-2.3123,-2.3139,-2.3181,-2.3167,-2.2995,-2.297,-2.2946,-2.2927,-2.3185,-2.3185,-2.335,-2.3351,-2.3353]},{"header":{"parameterUnit":"m.s-1","parameterCategory":1,"la1":30.2991,"la2":30.254,"lo1":-89.0895,"lo2":-89.0444,"dy":0.0017,"dx":0.0017,"nx":28,"ny":28,"refTime":"2024-12-07T03:00:00:Z","depth":0,"parameterNumber":3,"parameterNumberName":"V-component_of_WINDS"},"data":[0,0,0,0,0,0,0,0,0,0,0,0,0,0,0,0,0,0,0,0,0,0,0,0,0,0,0,0,0,0,0,0,0,0,0,0,0,0,0,0,0,0,0,0,0,0,0,0,0,0,0,0,0,0,0,0,0,0,-1.7324,-1.7324,0,-1.7348,-1.7348,-1.7349,-1.7331,-1.733,-1.7329,-1.7329,-1.7352,-1.7353,-1.7355,0,0,0,0,0,0,0,0,0,0,0,0,0,-1.7261,-1.7262,-1.7324,-1.7324,-1.7324,-1.7348,-1.7348,-1.7349,-1.7331,-1.733,-1.7329,-1.7328,-1.7352,-1.7353,-1.7355,0,0,0,0,0,0,0,0,0,0,0,0,0,-1.7287,-1.7262,-1.7324,-1.7318,-1.7318,-1.7348,-1.7348,-1.7349,-1.7331,-1.733,-1.7329,-1.7328,-1.7351,-1.7353,-1.7355,-1.7391,0,0,-1.7361,-1.7362,0,0,0,0,0,0,0,0,-1.7285,-1.7289,-1.7319,-1.7319,-1.7319,-1.7335,-1.7335,-1.7363,-1.7332,-1.7326,-1.7329,-1.7327,-1.7347,-1.735,-1.7357,-1.7392,-1.7393,-1.7362,-1.7363,-1.7364,-1.7364,0,0,0,0,0,0,0,-1.7283,-1.7288,-1.7333,-1.7319,-1.7319,-1.7314,-1.7317,-1.734,-1.7343,-1.7327,-1.7325,-1.7329,-1.7347,-1.7355,-1.7357,-1.7393,-1.7361,-1.7363,-1.7365,-1.7365,-1.7459,-1.746,0,0,0,0,0,0,-1.7282,-1.7286,-1.7333,-1.7334,-1.7299,-1.7316,-1.7319,-1.7331,-1.7343,-1.7343,-1.733,-1.7328,-1.7352,-1.7355,-1.7358,-1.7401,-1.7364,-1.7366,-1.7367,-1.7458,-1.7459,-1.7461,0,0,0,0,0,0,-1.7281,-1.7287,-1.7332,-1.731,-1.7315,-1.7319,-1.7332,-1.7332,-1.734,-1.7345,-1.7345,-1.7337,-1.7351,-1.7355,-1.7383,-1.7401,-1.7366,-1.7368,-1.7456,-1.7458,-1.746,-1.7487,0,0,0,0,0,0,-1.7279,-1.7286,-1.73,-1.731,-1.7317,-1.7357,-1.7333,-1.7334,-1.7344,-1.7341,-1.7352,-1.7353,-1.7351,-1.738,-1.7385,-1.7404,-1.737,-1.7455,-1.7457,-1.746,-1.7485,-1.749,-1.7494,0,0,0,0,0,-1.7277,-1.7307,-1.7301,-1.7307,-1.7334,-1.7358,-1.7361,-1.7359,-1.7345,-1.7359,-1.7362,-1.7352,-1.7398,-1.7383,-1.7388,-1.7408,-1.7454,-1.7457,-1.7459,-1.7482,-1.7489,-1.7494,0,0,0,0,0,0,-1.7298,-1.7308,-1.7302,-1.7336,-1.7346,-1.7355,-1.7373,-1.7365,-1.738,-1.7377,-1.7372,-1.7375,-1.7404,-1.7409,-1.7391,-1.7443,-1.7424,-1.7428,-1.744,-1.7445,-1.745,-1.7449,-1.7372,0,0,0,0,0,-1.7307,-1.7326,-1.7333,-1.7362,-1.7368,-1.7369,-1.7379,-1.7376,-1.7387,-1.7391,-1.7396,-1.7406,-1.7423,-1.7434,-1.745,-1.7485,-1.7487,-1.7501,-1.7505,-1.7509,-1.7513,-1.7532,-1.7538,-1.747,-1.747,-1.747,0,0,-1.7325,-1.7333,-1.7345,-1.7367,-1.7374,-1.7394,-1.7373,-1.7394,-1.7409,-1.7394,-1.7421,-1.7425,-1.7436,-1.7468,-1.7482,-1.7472,-1.7532,-1.7513,-1.7516,-1.7518,-1.7536,-1.7542,-1.7548,-1.7472,-1.7472,-1.7472,0,0,-1.7368,-1.7376,-1.7401,-1.7409,-1.7421,-1.7422,-1.7428,-1.7438,-1.744,-1.7467,-1.7457,-1.7473,-1.7502,-1.751,-1.7518,-1.7564,-1.7555,-1.7569,-1.7594,-1.7612,-1.7618,-1.7622,-1.7639,-1.7645,-1.7572,-1.7572,-1.7572,0,-1.7389,-1.7418,-1.7415,-1.7437,-1.7447,-1.7435,-1.746,-1.7468,-1.7484,-1.7491,-1.748,-1.7516,-1.7523,-1.7556,-1.7567,-1.7574,-1.758,-1.7568,-1.7617,-1.7622,-1.7626,-1.7642,-1.7648,-1.7574,-1.7574,-1.7574,-1.7574,0,-1.7444,-1.7464,-1.7483,-1.75,-1.7511,-1.7535,-1.7534,-1.7547,-1.7542,-1.7544,-1.7571,-1.7578,-1.7595,-1.7603,-1.7599,-1.7636,-1.7629,-1.7618,-1.7598,-1.7634,-1.7649,-1.7655,-1.7576,-1.7576,-1.7575,-1.7575,0,0,-1.7502,-1.7516,-1.7523,-1.7531,-1.7543,-1.7558,-1.7581,-1.7598,-1.7608,-1.762,-1.7639,-1.7663,-1.7652,-1.7661,-1.7658,-1.7674,-1.771,-1.766,-1.766,-1.767,-1.7751,-1.7761,-1.7768,-1.7704,-1.7705,-1.7706,-1.775,0,-1.7546,-1.7587,-1.7584,-1.7622,-1.764,-1.7629,-1.7648,-1.7658,-1.766,-1.7675,-1.7677,-1.7695,-1.7679,-1.7684,-1.77,-1.7702,-1.7726,-1.7699,-1.7721,-1.7722,-1.772,-1.7775,-1.7785,-1.7827,-1.7756,-1.7757,-1.7758,0,-1.7603,-1.7617,-1.7657,-1.7667,-1.7674,-1.7692,-1.7708,-1.7723,-1.7733,-1.7733,-1.7743,-1.7736,-1.7759,-1.7738,-1.7769,-1.775,-1.7759,-1.7761,-1.7763,-1.7766,-1.7743,-1.778,-1.7841,-1.7847,-1.7767,-1.7766,-1.7765,0,-1.7643,-1.7671,-1.7699,-1.7705,-1.7717,-1.773,-1.7735,-1.7744,-1.7754,-1.7767,-1.7773,-1.7789,-1.7797,-1.7809,-1.7806,-1.7791,-1.7838,-1.7817,-1.7838,-1.7839,-1.785,-1.7849,-1.7913,-1.7854,-1.7854,-1.7854,-1.7854,0,-1.7693,-1.7718,-1.7717,-1.7734,-1.7761,-1.7757,-1.7784,-1.7788,-1.7796,-1.7813,-1.7803,-1.7819,-1.7815,-1.7831,-1.7829,-1.7855,-1.7858,-1.7859,-1.7858,-1.7861,-1.7861,-1.7867,-1.7864,-1.7855,-1.7855,-1.7855,-1.7854,0,-1.7742,-1.7742,-1.7772,-1.778,-1.7782,-1.7802,-1.7809,-1.7825,-1.7826,-1.7848,-1.7852,-1.7854,-1.7872,-1.787,-1.7891,-1.7889,-1.7921,-1.7917,-1.7918,-1.7918,-1.794,-1.7938,-1.8011,-1.802,-1.7954,-1.7955,-1.7955,0,-1.7774,-1.7794,-1.7804,-1.7815,-1.7821,-1.7839,-1.785,-1.7846,-1.7857,-1.787,-1.7884,-1.7901,-1.7915,-1.7944,-1.7947,-1.7962,-1.7958,-1.7983,-1.7961,-1.7962,-1.7959,-1.7959,-1.7961,-1.7987,-1.7988,-1.7989,-1.7989,0,-1.7832,-1.7831,-1.7847,-1.7863,-1.7876,-1.7888,-1.7899,-1.7909,-1.7906,-1.7919,-1.7938,-1.7949,-1.7969,-1.7987,-1.8001,-1.8006,-1.7997,-1.7996,-1.8002,-1.8005,-1.8005,-1.8006,-1.7931,-1.7994,-1.7994,-1.7994,-1.7993,-1.7993,-1.7874,-1.7891,-1.7901,-1.7919,-1.7927,-1.7937,-1.7953,-1.7955,-1.7971,-1.7988,-1.7985,-1.8006,-1.8014,-1.8033,-1.8039,-1.8055,-1.8046,-1.8055,-1.8057,-1.8059,-1.8062,-1.8002,-1.8058,-1.8057,-1.8057,-1.8057,-1.8057,0,-1.7932,-1.7938,-1.7955,-1.7971,-1.7985,-1.7975,-1.7987,-1.7999,-1.8018,-1.8027,-1.8041,-1.8062,-1.8079,-1.8082,-1.8098,-1.811,-1.8107,-1.8114,-1.8114,-1.8115,-1.8069,-1.8063,-1.8117,-1.8117,-1.8117,-1.8117,-1.8117,-1.8117,-1.7964,-1.7992,-1.7992,-1.8023,-1.8028,-1.8049,-1.8057,-1.8066,-1.8074,-1.8098,-1.8112,-1.8114,-1.8121,-1.8137,-1.8152,-1.8152,-1.8159,-1.8168,-1.8167,-1.8124,-1.8118,-1.8113,-1.8107,-1.817,-1.817,-1.8212,-1.8213,-1.8213]}]]